Rockford, MI (49341)

8:17 PM EDT on August 03, 2015 (GMT -0400)
Cannon Twp-Tillicum Farms | | Change Station
CLOSE
Current Station
Personal Weather Station
Location: Rockford, MI
Elevation: 873 ft
Nearby Weather Stations

Elev 873 ft 43.09 °N, 85.47 °W | Updated 7 minutes ago

Partly Cloudy
Partly Cloudy
72.7 °F
Feels Like 77 °F
N
0.0
Wind Variable Wind from NNW

Today
High -- | Low -- °F
--% Chance of Precip.
Yesterday
High -- | Low -- °F
Precip. -- in
6:34 AM 9:01 PM
Waning Gibbous, 83% visible
Pressure 29.83 in
Visibility 10.0 miles
Clouds Few 6000 ft
Heat Index 77 °F
Dew Point 53 °F
Humidity 50%
Rainfall 0.00 in
Snow Depth Not available.
UV 0.0 out of 12
Pollen 5.20 out of 12
Air Quality Not available.
Flu Activity Not available.
METAR KGRR 032353Z 30010KT 10SM FEW060 23/09 A2984 RMK AO2 SLP100 T02330094 10261 20233 51004

More Conditions Fewer Conditions

Pressure 29.83 in
Visibility 10.0 miles
Clouds Few 6000 ft
Heat Index 77 °F
Dew Point 53 °F
Humidity 50%
Rainfall 0.00 in
Snow Depth Not available.
UV 0.0 out of 12
Pollen 5.20 out of 12
Air Quality Not available.
Flu Activity Not available.
METAR KGRR 032353Z 30010KT 10SM FEW060 23/09 A2984 RMK AO2 SLP100 T02330094 10261 20233 51004

More Conditions Fewer Conditions

10-Day Weather Forecast

×

Almanac

Astronomy

Aug. 03, 2015 Rise Set
Actual Time
Civil Twilight
Nautical Twilight
Astronomical Twilight
Moon
Length of Visible Light
Length of Day
Tomorrow will be .
, % of the Moon is Illuminated

Today's Extremes

State Highs State Lows

Community

WunderPhotos

Upload Photos

1,843,788 photos uploaded!

WunderBlogs® & News

Nearby

Air Quality

  Air Quality AQ Index Pollutant
Not available.

Snow Depth

Station Depth Elevation

Earthquake Activity

City Distance Mag. Time & Date
Minimum magnitude displayed is 2.5.

Coastal Water Temperatures

Place Temperature

Stations

Nearby Weather Stations

Station Location Temp. Windchill Dew Point Humidity Wind Precip. Elev Updated Type